Location: *
(53.9002°N, 27.5624°E)
Time: 02:32:20
(UTC+00:00)

Cosmos 1725 Rocket - Visible Passes

Search period start: 28 February 2020 00:00
Search period end: 09 March 2020 00:00
Orbit: 962 x 991 km, 82.9° (Epoch: 26 February)

Date Brightness Start Highest point End Pass type
(mag) Time Alt. Az. Time Alt. Az. Time Alt. Az.
28 Feb 6.0 01:14:39 10° N 01:19:49 26° ENE 01:24:58 10° ESE visible
28 Feb 3.9 02:59:39 10° NNW 03:05:58 78° W 03:12:15 10° S visible
28 Feb 4.8 16:36:50 10° SSW 16:42:54 57° WNW 16:49:04 10° N visible
28 Feb 6.8 18:26:33 10° W 18:29:51 15° NW 18:33:10 10° NNW visible
28 Feb 7.0 23:57:35 10° NE 23:58:25 10° NE 23:59:16 10° NE visible
29 Feb 5.3 01:40:01 10° N 01:45:53 39° ENE 01:51:44 10° SE visible
29 Feb 4.2 03:25:27 10° NNW 03:31:28 49° W 03:37:29 10° SSW visible
29 Feb 5.6 17:03:08 10° SW 17:08:49 36° WNW 17:14:33 10° N visible
01 Mar 6.6 00:21:14 10° NNE 00:24:54 16° NE 00:28:34 10° E visible
01 Mar 4.5 02:05:31 10° N 02:11:46 61° ENE 02:18:00 10° SSE visible
01 Mar 4.7 03:51:26 10° NNW 03:56:49 31° W 04:02:13 10° SW visible
01 Mar 6.3 17:29:58 10° WSW 17:34:54 24° WNW 17:39:53 10° N visible
02 Mar 6.1 00:46:15 10° N 00:51:12 23° ENE 00:56:09 10° ESE visible
02 Mar 3.9 02:31:09 10° NNW 02:37:29 87° W 02:43:48 10° S visible
02 Mar 5.2 04:17:44 10° NW 04:22:00 19° WNW 04:26:17 10° WSW visible
02 Mar 6.7 17:57:28 10° W 18:01:11 16° NW 18:04:56 10° NNW visible
03 Mar 5.4 01:11:34 10° N 01:17:18 35° ENE 01:23:02 10° SE visible
03 Mar 4.1 02:56:54 10° NNW 03:03:01 55° W 03:09:09 10° SSW visible
03 Mar 5.5 16:34:25 10° SW 16:40:14 40° WNW 16:46:07 10° N visible
03 Mar 7.1 18:26:24 10° NW 18:27:39 11° NW 18:28:54 10° NNW visible
03 Mar 6.7 23:52:58 10° NNE 23:56:14 14° NE 23:59:29 10° E visible
04 Mar 4.7 01:37:02 10° N 01:43:14 55° ENE 01:49:25 10° SSE visible
04 Mar 4.6 03:22:50 10° NNW 03:28:25 35° W 03:34:00 10° SSW visible
04 Mar 6.2 17:01:07 10° WSW 17:06:17 27° WNW 17:11:30 10° N visible
05 Mar 6.2 00:17:52 10° N 00:22:35 21° ENE 00:27:16 10° ESE visible
05 Mar 4.0 02:02:38 10° N 02:08:59 85° E 02:15:20 10° S visible
05 Mar 5.1 03:49:02 10° NNW 03:53:38 22° W 03:58:15 10° SW visible
05 Mar 6.7 17:28:25 10° W 17:32:31 18° NW 17:36:38 10° NNW visible
06 Mar 5.6 00:43:07 10° N 00:48:43 32° ENE 00:54:18 10° SE visible
06 Mar 4.0 02:28:21 10° NNW 02:34:34 62° W 02:40:47 10° S visible
06 Mar 6.9 17:56:45 10° WNW 17:58:56 12° NW 18:01:07 10° NNW visible
06 Mar 6.7 23:24:47 10° NNE 23:27:33 13° NE 23:30:19 10° ENE visible
07 Mar 4.8 01:08:34 10° N 01:14:42 49° ENE 01:20:48 10° SE visible
07 Mar 4.4 02:54:14 10° NNW 03:00:00 39° W 03:05:46 10° SSW visible
07 Mar 6.1 16:32:19 10° WSW 16:37:40 29° WNW 16:43:06 10° N visible
07 Mar 6.3 23:49:30 10° N 23:53:56 19° NE 23:58:22 10° E visible
08 Mar 4.1 01:34:08 10° N 01:40:29 77° ENE 01:46:49 10° SSE visible
08 Mar 5.0 03:20:22 10° NNW 03:25:16 24° W 03:30:11 10° SW visible
08 Mar 6.6 16:59:27 10° W 17:03:51 20° NW 17:08:18 10° N visible
